When you browse on this site, cookies collect data to enhance your experience and personalize the content and advertising you see.
Visit our Privacy Policy to learn more. By continuing to use the site, you agree to this use of cookies and data.
  • en Suisse
  • Liste des pays
  • À 7 jours
  • Température de l'eau
  • Carte météo
  • Widgets météo
  • user-avatar
    Se connecter

    Météo par heure à Segedyn

    Ce jour, 24 Août, Samedi

    Heure Température Précipitation Vent Pression Humidité
    00:00 +25°C° 0.1 mm 4 m/s 758 mmHg 65%
    01:00 +23°C° 0.1 mm 4 m/s 758 mmHg 66%
    02:00 +24°C° 0 mm 3 m/s 758 mmHg 68%
    03:00 +24°C° 0 mm 3 m/s 758 mmHg 71%
    04:00 +22°C° 0 mm 3 m/s 758 mmHg 73%
    05:00 +24°C° 0.2 mm 3 m/s 758 mmHg 72%
    06:00 +24°C° 0.2 mm 3 m/s 758 mmHg 70%
    07:00 +25°C° 0.2 mm 2 m/s 758 mmHg 69%
    08:00 +27°C° 0.2 mm 2 m/s 758 mmHg 58%
    09:00 +30°C° 0.2 mm 2 m/s 758 mmHg 47%
    10:00 +32°C° 0.2 mm 2 m/s 758 mmHg 37%
    11:00 +35°C° 0 mm 2 m/s 758 mmHg 33%
    12:00 +36°C° 0 mm 2 m/s 757 mmHg 30%
    13:00 +37°C° 0 mm 2 m/s 757 mmHg 26%
    14:00 +37°C° 0 mm 2 m/s 756 mmHg 27%
    15:00 +36°C° 0 mm 2 m/s 756 mmHg 29%
    16:00 +35°C° 0 mm 3 m/s 756 mmHg 30%
    17:00 +34°C° 0 mm 3 m/s 756 mmHg 32%
    18:00 +32°C° 0 mm 2 m/s 756 mmHg 35%
    19:00 +30°C° 0 mm 2 m/s 756 mmHg 38%
    20:00 +29°C° 0 mm 2 m/s 756 mmHg 42%
    21:00 +28°C° 0 mm 3 m/s 756 mmHg 46%
    22:00 +27°C° 0 mm 3 m/s 756 mmHg 50%
    23:00 +27°C° 0 mm 3 m/s 756 mmHg 52%

    Demain, 25 Août, Dimanche

    Heure Température Précipitation Vent Pression Humidité
    00:00 +26°C° 0 mm 3 m/s 756 mmHg 54%
    01:00 +26°C° 0 mm 3 m/s 756 mmHg 56%
    02:00 +26°C° 0 mm 2 m/s 756 mmHg 58%
    03:00 +25°C° 0 mm 2 m/s 756 mmHg 59%
    04:00 +25°C° 0 mm 2 m/s 756 mmHg 60%
    05:00 +26°C° 0 mm 2 m/s 756 mmHg 58%
    06:00 +26°C° 0 mm 2 m/s 756 mmHg 55%
    07:00 +27°C° 0 mm 2 m/s 756 mmHg 52%
    08:00 +29°C° 0 mm 2 m/s 756 mmHg 47%
    09:00 +30°C° 0 mm 2 m/s 757 mmHg 42%
    10:00 +33°C° 0 mm 3 m/s 757 mmHg 36%
    11:00 +34°C° 0 mm 3 m/s 756 mmHg 34%
    12:00 +35°C° 0 mm 3 m/s 756 mmHg 32%
    13:00 +36°C° 0 mm 3 m/s 756 mmHg 29%
    14:00 +35°C° 0.2 mm 3 m/s 755 mmHg 32%
    15:00 +34°C° 0.2 mm 3 m/s 755 mmHg 35%
    16:00 +33°C° 0.2 mm 4 m/s 755 mmHg 38%
    17:00 +30°C° 0.2 mm 4 m/s 755 mmHg 43%
    18:00 +29°C° 0.2 mm 4 m/s 755 mmHg 48%
    19:00 +27°C° 0.2 mm 4 m/s 755 mmHg 53%
    20:00 +27°C° 0.4 mm 3 m/s 756 mmHg 56%
    21:00 +26°C° 0.4 mm 2 m/s 756 mmHg 60%
    22:00 +25°C° 0.4 mm 1 m/s 756 mmHg 63%
    23:00 +25°C° 0.1 mm 1 m/s 756 mmHg 65%

    Après-demain, 26 Août, Lundi

    Heure Température Précipitation Vent Pression Humidité
    00:00 +24°C° 0.1 mm 1 m/s 756 mmHg 66%
    01:00 +24°C° 0.1 mm 1 m/s 756 mmHg 68%
    02:00 +24°C° 0.1 mm 1 m/s 756 mmHg 69%
    03:00 +23°C° 0.1 mm 2 m/s 756 mmHg 71%
    04:00 +23°C° 0.1 mm 2 m/s 756 mmHg 72%
    05:00 +24°C° 0.1 mm 2 m/s 756 mmHg 69%
    06:00 +25°C° 0.1 mm 3 m/s 756 mmHg 67%
    07:00 +26°C° 0.1 mm 3 m/s 756 mmHg 64%
    08:00 +28°C° 0 mm 3 m/s 756 mmHg 56%
    09:00 +30°C° 0 mm 3 m/s 757 mmHg 48%
    10:00 +33°C° 0 mm 4 m/s 757 mmHg 41%
    11:00 +34°C° 0 mm 4 m/s 756 mmHg 37%
    12:00 +35°C° 0 mm 4 m/s 756 mmHg 34%
    13:00 +36°C° 0 mm 3 m/s 756 mmHg 30%
    14:00 +36°C° 0 mm 3 m/s 756 mmHg 30%
    15:00 +36°C° 0 mm 4 m/s 755 mmHg 29%
    16:00 +37°C° 0 mm 4 m/s 755 mmHg 29%
    17:00 +35°C° 0.1 mm 4 m/s 755 mmHg 33%
    18:00 +33°C° 0.1 mm 3 m/s 755 mmHg 38%
    19:00 +30°C° 0.1 mm 3 m/s 755 mmHg 42%
    20:00 +29°C° 0.1 mm 3 m/s 755 mmHg 47%
    21:00 +28°C° 0.1 mm 3 m/s 755 mmHg 51%
    22:00 +27°C° 0.1 mm 3 m/s 756 mmHg 56%
    23:00 +26°C° 0.3 mm 3 m/s 756 mmHg 61%

    27 Août, Mardi

    Heure Température Précipitation Vent Pression Humidité
    00:00 +25°C° 0.3 mm 2 m/s 756 mmHg 65%
    01:00 +24°C° 0.3 mm 2 m/s 756 mmHg 70%
    02:00 +23°C° 0 mm 2 m/s 756 mmHg 72%
    03:00 +23°C° 0 mm 2 m/s 756 mmHg 74%
    04:00 +21°C° 0 mm 2 m/s 756 mmHg 76%
    05:00 +23°C° 0 mm 2 m/s 756 mmHg 72%
    06:00 +24°C° 0 mm 2 m/s 756 mmHg 68%
    07:00 +25°C° 0 mm 2 m/s 757 mmHg 65%
    08:00 +27°C° 0 mm 3 m/s 757 mmHg 55%
    09:00 +30°C° 0 mm 3 m/s 757 mmHg 45%
    10:00 +33°C° 0 mm 4 m/s 757 mmHg 36%
    11:00 +34°C° 0 mm 3 m/s 757 mmHg 33%
    12:00 +35°C° 0 mm 3 m/s 757 mmHg 30%
    13:00 +36°C° 0 mm 3 m/s 756 mmHg 27%
    14:00 +36°C° 0 mm 3 m/s 756 mmHg 27%
    15:00 +36°C° 0 mm 2 m/s 756 mmHg 26%
    16:00 +37°C° 0 mm 2 m/s 755 mmHg 25%
    17:00 +35°C° 0 mm 2 m/s 755 mmHg 29%
    18:00 +32°C° 0 mm 2 m/s 755 mmHg 32%
    19:00 +30°C° 0 mm 2 m/s 755 mmHg 36%
    20:00 +29°C° 0 mm 2 m/s 756 mmHg 39%
    21:00 +28°C° 0 mm 2 m/s 756 mmHg 41%
    22:00 +27°C° 0 mm 1 m/s 756 mmHg 44%
    23:00 +27°C° 0 mm 1 m/s 756 mmHg 46%

    28 Août, Mercredi

    Heure Température Précipitation Vent Pression Humidité
    00:00 +26°C° 0 mm 1 m/s 756 mmHg 48%
    01:00 +25°C° 0 mm 1 m/s 756 mmHg 50%
    02:00 +25°C° 0 mm 1 m/s 756 mmHg 51%
    03:00 +25°C° 0 mm 1 m/s 756 mmHg 52%
    04:00 +24°C° 0 mm 2 m/s 755 mmHg 53%
    05:00 +25°C° 0 mm 2 m/s 756 mmHg 49%
    06:00 +27°C° 0 mm 2 m/s 756 mmHg 45%
    07:00 +28°C° 0 mm 3 m/s 756 mmHg 40%
    08:00 +30°C° 0 mm 3 m/s 756 mmHg 35%
    09:00 +33°C° 0 mm 3 m/s 756 mmHg 30%
    10:00 +35°C° 0 mm 4 m/s 756 mmHg 24%
    11:00 +36°C° 0 mm 3 m/s 755 mmHg 23%
    12:00 +37°C° 0 mm 3 m/s 755 mmHg 22%
    13:00 +37°C° 0 mm 3 m/s 754 mmHg 21%
    14:00 +37°C° 0 mm 3 m/s 754 mmHg 21%
    15:00 +37°C° 0 mm 4 m/s 753 mmHg 20%
    16:00 +37°C° 0 mm 4 m/s 753 mmHg 20%
    17:00 +35°C° 0 mm 4 m/s 753 mmHg 23%
    18:00 +33°C° 0 mm 3 m/s 753 mmHg 26%
    19:00 +29°C° 0 mm 2 m/s 753 mmHg 29%
    20:00 +29°C° 0 mm 2 m/s 753 mmHg 29%
    21:00 +28°C° 0 mm 2 m/s 753 mmHg 30%
    22:00 +27°C° 0 mm 2 m/s 753 mmHg 30%
    23:00 +26°C° 0 mm 2 m/s 753 mmHg 31%

    29 Août, Jeudi

    Heure Température Précipitation Vent Pression Humidité
    00:00 +25°C° 0 mm 2 m/s 753 mmHg 31%
    01:00 +25°C° 0 mm 2 m/s 753 mmHg 32%
    02:00 +24°C° 0 mm 2 m/s 753 mmHg 33%
    03:00 +24°C° 0 mm 2 m/s 753 mmHg 34%
    04:00 +23°C° 0 mm 2 m/s 753 mmHg 35%
    05:00 +24°C° 0 mm 3 m/s 753 mmHg 33%
    06:00 +25°C° 0 mm 3 m/s 753 mmHg 32%
    07:00 +27°C° 0 mm 4 m/s 753 mmHg 30%
    08:00 +29°C° 0 mm 4 m/s 753 mmHg 26%
    09:00 +32°C° 0 mm 4 m/s 753 mmHg 23%
    10:00 +35°C° 0 mm 5 m/s 753 mmHg 19%
    11:00 +36°C° 0 mm 5 m/s 753 mmHg 18%
    12:00 +37°C° 0 mm 5 m/s 752 mmHg 17%
    13:00 +38°C° 0 mm 4 m/s 752 mmHg 15%
    14:00 +37°C° 0 mm 4 m/s 752 mmHg 15%
    15:00 +37°C° 0 mm 4 m/s 751 mmHg 15%
    16:00 +37°C° 0 mm 4 m/s 751 mmHg 15%
    17:00 +35°C° 0 mm 3 m/s 751 mmHg 18%
    18:00 +31°C° 0 mm 3 m/s 751 mmHg 22%
    19:00 +29°C° 0 mm 2 m/s 751 mmHg 25%
    20:00 +28°C° 0 mm 2 m/s 752 mmHg 26%
    21:00 +27°C° 0 mm 2 m/s 752 mmHg 28%
    22:00 +26°C° 0 mm 2 m/s 752 mmHg 29%
    23:00 +26°C° 0 mm 2 m/s 752 mmHg 31%
    Voir plus